ARIRANG-5 (KOMPSAT-5)

Last updated on Mon Sep 21 2026 00:02:45 GMT+0000 (Coordinated Universal Time)

1 39227U 13042A 26263.60572490 .00001420 00000+0 10587-3 0 9995 2 39227 97.6204 88.9803 0003440 146.2345 213.9100 15.04477100718208
UTC large
Height (km)
Speed (km/s)
/
Latitude / Longitude
Inclination (degrees)
Orbital Period (minutes)
Azimuth
Elevation
Range (km)
Doppler Factor

Next 0 passes for location: London (51.5072 / 0.1276)

No passes found over London.